Theta_e
350 347 345 346 342 341 341 344 347 344 345 347 348 349 351 348 347 349 347 348 349 343
345 347 345 348 348 346 348 344 346 345 346 347 348 349 350 345 347 348 348 349 349 344
344 343 343 347 344 346 348 347 346 346 346 346 347 347 349 347 348 347 347 346 347 345
339 343 345 344 344 346 349 348 345 346 346 346 346 347 348 347 346 345 347 347 345 345
321 345 346 347 347 348 346 346 345 346 345 345 345 347 346 345 345 344 344 344 344 342
317 324 345 348 347 349 349 347 346 346 345 345 345 345 346 345 345 344 343 342 336 333
314 318 322 346 349 348 349 349 348 348 347 348 347 346 346 346 345 344 342 335 334 329
313 318 323 332 346 349 350 350 350 349 349 350 349 347 347 346 344 341 338 331 332 332
312 316 321 330 340 345 348 348 349 350 349 351 350 321 322 339 342 337 335 331 335 332
311 314 318 325 330 340 343 346 349 349 349 346 348 312 314 319 340 334 335 334 331 322
311 314 317 322 328 334 340 341 341 342 343 343 345 309 309 313 336 332 331 329 322 322
311 313 316 320 327 333 335 336 338 339 338 339 341 306 306 319 333 330 325 324 325 322
311 313 315 318 324 331 334 334 333 334 337 330 336 302 303 321 329 321 320 323 321 310
313 315 317 320 323 329 330 332 332 334 334 335 331 310 304 308 327 321 317 314 315 314
Wind_Speed
21 15 14 15 13 12 11 12 14 15 13 14 15 14 13 11 11 11 12 14 10 9
13 14 13 11 13 11 12 11 13 14 15 14 14 15 14 12 13 12 12 12 12 10
16 13 10 10 13 12 11 13 14 15 14 14 14 15 14 11 12 13 11 10 12 11
8 16 13 13 14 14 14 15 15 15 15 15 16 14 12 11 12 14 12 12 13 13
12 13 15 14 15 15 15 14 15 14 15 15 14 14 15 15 13 14 15 14 12 10
11 12 15 14 14 15 15 15 15 15 15 15 15 15 16 16 15 16 14 12 12 14
12 10 10 13 15 15 15 15 16 16 16 15 14 15 15 15 15 14 15 15 16 18
13 12 9 8 13 16 16 16 16 16 15 15 14 13 16 14 16 14 16 14 16 17
13 12 11 8 8 12 14 17 16 17 17 16 12 16 19 18 15 15 17 16 16 15
14 13 10 10 9 10 14 15 16 15 16 17 17 18 21 20 15 16 16 17 14 11
12 14 10 11 8 9 9 13 13 14 14 16 15 20 22 22 15 14 15 13 17 17
12 13 11 11 9 7 7 8 10 11 12 15 14 17 20 20 13 11 12 13 15 16
12 13 12 10 12 5 6 8 6 8 11 15 13 16 17 18 10 13 11 13 12 14
13 12 12 11 11 6 6 6 8 11 9 11 11 13 19 15 15 11 12 10 11 11
Wind_Direction
207 207 200 194 187 187 192 194 187 203 200 198 196 197 195 195 195 193 200 198 205 203
208 214 218 203 198 186 189 189 186 191 196 199 198 198 191 198 195 189 196 200 198 205
213 202 207 200 199 195 190 191 188 189 193 200 201 200 196 201 195 194 196 205 198 201
260 209 202 202 198 195 188 189 193 189 194 203 203 199 197 201 195 202 199 203 200 194
335 219 203 206 200 196 194 197 196 192 197 202 201 193 196 201 194 200 199 202 196 165
341 339 209 207 202 198 199 197 195 193 196 196 196 196 201 203 199 202 194 176 165 160
333 332 324 218 205 204 199 197 197 198 201 199 194 197 197 201 198 192 179 171 172 172
326 327 316 296 209 208 207 203 200 201 203 200 195 194 190 190 192 180 179 178 184 180
318 317 318 308 261 200 208 210 206 206 203 196 198 183 176 177 182 177 181 181 190 180
306 306 305 304 283 229 206 200 206 204 201 199 202 178 177 173 177 176 186 181 164 143
291 290 300 293 287 241 210 201 200 196 198 198 202 184 173 170 177 181 184 162 150 149
277 281 293 291 292 248 209 193 199 184 184 199 200 179 165 163 171 162 139 142 151 151
263 261 266 275 275 259 228 198 192 188 193 195 182 168 168 173 155 143 139 145 147 155
258 255 255 259 257 264 233 208 199 179 192 191 175 169 170 162 161 154 141 146 156 162